Location: Burbank
(38.7788°N, 114.0429°W)
Time: 10:47:49
(UTC+00:00)

Courier 1B Rocket - Pass Details

Date: 11 May 2026
Orbit: 920 x 1201 km, 28.2° (Epoch: 10 June)

Event Time Altitude Azimuth Distance (km) Brightness Sun altitude
Rises 18:49:00 0° 250° (WSW) 3,642 8.0 67.2°
Reaches altitude 10° 18:51:48 10° 241° (WSW) 2,732 7.5 67.4°
Maximum altitude 18:57:42 34° 179° (S) 1,615 7.2 67.9°
Drops below altitude 10° 19:03:58 10° 117° (ESE) 2,915 7.9 68.3°
Sets 19:07:04 0° 108° (ESE) 3,919 8.3 68.5°
